| time (UTC) | temp F | wind direction | speed MPH | gust MPH | rain 1hr in | rain 24hr in | rain mn in | humidity % | barometer mb |
| 20260502163003 | 68 | 337 | 6.0 | 7.0 | 0.00 | 0.00 | 0.00 | 39 | 1065.0 |
| 20260502162003 | 68 | 338 | 3.0 | 4.0 | 0.00 | 0.00 | 0.00 | 39 | 1065.0 |
| 20260502160503 | 68 | 297 | 3.0 | 6.0 | 0.00 | 0.00 | 0.00 | 41 | 1065.0 |
| 20260502152003 | 64 | 212 | 6.0 | 7.0 | 0.00 | 0.00 | 0.00 | 46 | 1065.4 |
| 20260502150503 | 63 | 218 | 6.0 | 9.0 | 0.00 | 0.00 | 0.00 | 46 | 1064.7 |
| 20260502130503 | 57 | 175 | 7.0 | 8.0 | 0.00 | 0.00 | 0.00 | 51 | 1064.7 |
| 20260502123503 | 54 | 158 | 4.0 | 6.0 | 0.00 | 0.00 | 0.00 | 57 | 1064.7 |
| 20260502122003 | 53 | 224 | 3.0 | 4.0 | 0.00 | 0.00 | 0.00 | 60 | 1064.3 |
| 20260502120503 | 52 | 218 | 2.0 | 4.0 | 0.00 | 0.00 | 0.00 | 62 | 1064.3 |
| 20260502115003 | 52 | 133 | 2.0 | 3.0 | 0.00 | 0.00 | 0.00 | 63 | 1064.0 |
| 20260502114003 | 52 | 160 | 3.0 | 4.0 | 0.00 | 0.00 | 0.00 | 62 | 1064.3 |
| 20260502112503 | 53 | 222 | 1.0 | 3.0 | 0.00 | 0.00 | 0.00 | 60 | 1064.3 |
| 20260502111003 | 54 | 219 | 0.0 | 3.0 | 0.00 | 0.00 | 0.00 | 58 | 1064.3 |
| 20260502105503 | 53 | 167 | 3.0 | 4.0 | 0.00 | 0.00 | 0.00 | 57 | 1064.3 |
| 20260502104003 | 54 | 112 | 3.0 | 4.0 | 0.00 | 0.00 | 0.00 | 57 | 1064.7 |
| 20260502102502 | 55 | 39 | 9.0 | 10.0 | 0.00 | 0.00 | 0.00 | 55 | 1064.7 |
| 20260502101003 | 55 | 18 | 10.0 | 23.0 | 0.00 | 0.00 | 0.00 | 55 | 1064.3 |
| 20260502091503 | 53 | 221 | 3.0 | 6.0 | 0.00 | 0.00 | 0.00 | 58 | 1063.0 |
| 20260502070503 | 58 | 178 | 4.0 | 8.0 | 0.00 | 0.00 | 0.00 | 45 | 1063.0 |
| 20260502063503 | 57 | 193 | 5.0 | 7.0 | 0.00 | 0.00 | 0.00 | 48 | 1063.3 |
| 20260502062503 | 58 | 192 | 7.0 | 7.0 | 0.00 | 0.00 | 0.00 | 46 | 1063.3 |
| 20260502061003 | 58 | 188 | 4.0 | 6.0 | 0.00 | 0.00 | 0.00 | 46 | 1063.3 |
| 20260502054004 | 59 | 170 | 3.0 | 6.0 | 0.00 | 0.00 | 0.00 | 44 | 1063.0 |
| 20260502052505 | 58 | 181 | 3.0 | 5.0 | 0.00 | 0.00 | 0.00 | 45 | 1063.0 |
| 20260502051503 | 58 | 173 | 3.0 | 5.0 | 0.00 | 0.00 | 0.00 | 46 | 1063.0 |
| 20260502050006 | 57 | 184 | 2.0 | 3.0 | 0.00 | 0.00 | 0.00 | 48 | 1063.0 |
| 20260502045003 | 58 | 177 | 3.0 | 5.0 | 0.00 | 0.00 | 0.00 | 48 | 1063.0 |
| 20260502042502 | 58 | 164 | 4.0 | 4.0 | 0.00 | 0.00 | 0.00 | 49 | 1063.0 |
| 20260502041003 | 58 | 166 | 0.0 | 3.0 | 0.00 | 0.00 | 0.00 | 49 | 1063.0 |
| 20260502035503 | 59 | 122 | 1.0 | 1.0 | 0.00 | 0.00 | 0.00 | 47 | 1063.0 |
| 20260502034003 | 59 | 157 | 3.0 | 5.0 | 0.00 | 0.00 | 0.00 | 46 | 1062.6 |
| 20260502032503 | 60 | 156 | 2.0 | 4.0 | 0.00 | 0.00 | 0.00 | 46 | 1062.6 |
| 20260502031003 | 60 | 128 | 3.0 | 4.0 | 0.00 | 0.00 | 0.00 | 46 | 1062.6 |
| 20260502025503 | 60 | 91 | 1.0 | 5.0 | 0.00 | 0.00 | 0.00 | 45 | 1062.6 |
| 20260502022503 | 61 | 120 | 4.0 | 4.0 | 0.00 | 0.00 | 0.00 | 44 | 1062.3 |
| 20260502021503 | 61 | 128 | 2.0 | 3.0 | 0.00 | 0.00 | 0.00 | 45 | 1062.3 |
| 20260502020003 | 62 | 151 | 2.0 | 4.0 | 0.00 | 0.00 | 0.00 | 44 | 1062.0 |
| 20260502014502 | 63 | 137 | 3.0 | 3.0 | 0.00 | 0.00 | 0.00 | 42 | 1061.6 |
| 20260502013003 | 63 | 59 | 2.0 | 3.0 | 0.00 | 0.00 | 0.00 | 40 | 1061.6 |
| 20260502011502 | 64 | 51 | 3.0 | 4.0 | 0.00 | 0.00 | 0.00 | 38 | 1061.3 |
| 20260502010004 | 65 | 51 | 4.0 | 6.0 | 0.00 | 0.00 | 0.00 | 36 | 1061.3 |
| 20260502004503 | 65 | 49 | 5.0 | 6.0 | 0.00 | 0.00 | 0.00 | 35 | 1061.0 |
| 20260502003003 | 66 | 341 | 4.0 | 5.0 | 0.00 | 0.00 | 0.00 | 33 | 1061.0 |
| 20260502001503 | 67 | 51 | 6.0 | 8.0 | 0.00 | 0.00 | 0.00 | 32 | 1061.0 |
| 20260502000003 | 67 | 38 | 6.0 | 9.0 | 0.00 | 0.00 | 0.00 | 31 | 1061.0 |
| 20260501234503 | 67 | 4 | 8.0 | 11.0 | 0.00 | 0.00 | 0.00 | 32 | 1061.0 |
| 20260501233003 | 68 | 41 | 8.0 | 11.0 | 0.00 | 0.00 | 0.00 | 32 | 1060.6 |
| 20260501231503 | 67 | 116 | 5.0 | 13.0 | 0.00 | 0.00 | 0.00 | 32 | 1060.6 |
| 20260501230003 | 67 | 26 | 9.0 | 12.0 | 0.00 | 0.00 | 0.00 | 31 | 1060.6 |
| 20260501223003 | 68 | 3 | 8.0 | 13.0 | 0.00 | 0.00 | 0.00 | 31 | 1060.3 |
| 20260501221503 | 69 | 62 | 10.0 | 11.0 | 0.00 | 0.00 | 0.00 | 32 | 1060.6 |
| 20260501220502 | 68 | 346 | 7.0 | 15.0 | 0.00 | 0.00 | 0.00 | 31 | 1060.6 |
| 20260501215003 | 68 | 54 | 10.0 | 14.0 | 0.00 | 0.00 | 0.00 | 32 | 1060.6 |
| 20260501213503 | 68 | 37 | 8.0 | 12.0 | 0.00 | 0.00 | 0.00 | 33 | 1060.6 |
| 20260501212004 | 68 | 41 | 7.0 | 9.0 | 0.00 | 0.00 | 0.00 | 33 | 1061.0 |
| 20260501210502 | 68 | 36 | 9.0 | 14.0 | 0.00 | 0.00 | 0.00 | 33 | 1061.0 |
| 20260501202002 | 70 | 42 | 11.0 | 15.0 | 0.00 | 0.00 | 0.00 | 30 | 1061.6 |
| 20260501200503 | 70 | 64 | 11.0 | 19.0 | 0.00 | 0.00 | 0.00 | 28 | 1062.0 |
| 20260501195003 | 69 | 37 | 16.0 | 16.0 | 0.00 | 0.00 | 0.00 | 32 | 1062.0 |
| 20260501192003 | 68 | 43 | 22.0 | 22.0 | 0.00 | 0.00 | 0.00 | 34 | 1062.3 |
| 20260501190503 | 69 | 40 | 8.0 | 20.0 | 0.00 | 0.00 | 0.00 | 34 | 1062.3 |
| 20260501185003 | 69 | 122 | 13.0 | 18.0 | 0.00 | 0.00 | 0.00 | 35 | 1062.6 |
| 20260501183503 | 69 | 39 | 13.0 | 13.0 | 0.00 | 0.00 | 0.00 | 39 | 1063.0 |
| 20260501182003 | 68 | 86 | 10.0 | 16.0 | 0.00 | 0.00 | 0.00 | 37 | 1063.3 |
| 20260501180503 | 68 | 5 | 9.0 | 11.0 | 0.00 | 0.00 | 0.00 | 42 | 1063.3 |
| 20260501175003 | 67 | 67 | 10.0 | 12.0 | 0.00 | 0.00 | 0.00 | 43 | 1063.7 |